Weather History for Reading, PA

Change the Weather History Date:

Saturday, February 2, 2013

  Actual Average Record
Temperature  
Mean Temperature 20 °F 30 °F  
Max Temperature 24 °F 39 °F 61 °F (1983)
Min Temperature 15 °F 21 °F -2 °F (1918)
Degree Days  
Heating Degree Days 45 35  
Month to date heating degree days 85 70  
Since 1 July heating degree days 2884 3195  
Cooling Degree Days 0 0  
Month to date cooling degree days 0 0  
Year to date cooling degree days 0 0  
Moisture  
Dew Point 15 °F    
Average Humidity 73    
Maximum Humidity 96    
Minimum Humidity 49    
Precipitation  
Precipitation 0.05 in 0.08 in 1.13 in (1956)
Month to date precipitation 0.05 0.16  
Year to date precipitation 3.57 3.21  
Sea Level Pressure  
Sea Level Pressure 30.16 in    
Wind  
Wind Speed 5 mph (SSW)    
Max Wind Speed 15 mph    
Max Gust Speed 20 mph    
Visibility 5 miles    
Events Snow    
T = Trace of Precipitation, MM = Missing Value Source: NWS Daily Summary

Daily Weather History Graph

Daily Weather History Graph

Search for Another Location

Airport:

Trip Planner

Search our weather history database for the weather conditions in past years. The results will help you decide how hot, cold, wet, or windy it might be!

Date:

Astronomy

Feb. 02, 2013 Rise Set
Actual Time 7:11 AM EST 5:23 PM EST
Civil Twilight 6:43 AM EST 5:52 PM EST
Nautical Twilight 6:10 AM EST 6:25 PM EST
Astronomical Twilight 5:38 AM EST 6:56 PM EST
Moon No Moon Rise 10:19 AM EST (2/2)
Length of Visible Light 11h 09m
Length of Day
10h 11m
Waning Gibbous, 60% of the Moon is Illuminated
Feb 2
Waning Gibbous
Feb 3
Last Quarter
Feb 10
New
Feb 17
First Quarter
Feb 25
Full

Hourly Weather History & Observations

Time (EST) Temp. Windchill Dew Point Humidity Pressure Visibility Wind Dir Wind Speed Gust Speed Precip Events Conditions
12:54 AM 19.0 °F 8.2 °F 6.1 °F 57% 30.32 in 10.0 mi West 9.2 mph - N/A   Clear
1:54 AM 18.0 °F 11.1 °F 6.1 °F 60% 30.34 in 10.0 mi WSW 4.6 mph - N/A   Clear
2:54 AM 18.0 °F 7.7 °F 5.0 °F 57% 30.35 in 10.0 mi West 8.1 mph - N/A   Clear
3:54 AM 17.1 °F 11.7 °F 3.9 °F 56% 30.33 in 10.0 mi WSW 3.5 mph - N/A   Clear
4:54 AM 16.0 °F 8.8 °F 3.9 °F 59% 30.32 in 10.0 mi WSW 4.6 mph - N/A   Clear
5:54 AM 16.0 °F - 3.9 °F 59% 30.33 in 10.0 mi Calm Calm - N/A   Clear
6:54 AM 15.1 °F - 3.9 °F 61% 30.32 in 10.0 mi Calm Calm - N/A   Clear
7:54 AM 17.1 °F - 7.0 °F 65% 30.33 in 10.0 mi Calm Calm - N/A   Clear
8:54 AM 19.9 °F 11.1 °F 7.0 °F 57% 30.32 in 10.0 mi SW 6.9 mph - N/A   Clear
9:54 AM 23.0 °F 11.7 °F 8.1 °F 53% 30.30 in 10.0 mi SSW 11.5 mph - N/A   Scattered Clouds
10:54 AM 23.0 °F 11.7 °F 7.0 °F 50% 30.29 in 10.0 mi SSW 11.5 mph - N/A   Mostly Cloudy
11:54 AM 21.9 °F 10.4 °F 7.0 °F 53% 30.26 in 10.0 mi SSW 11.5 mph - N/A   Overcast
12:54 PM 23.0 °F 10.1 °F 6.1 °F 48% 30.23 in 10.0 mi SW 15.0 mph 18.4 mph N/A   Overcast
1:54 PM 24.1 °F 13.7 °F 10.9 °F 57% 30.18 in 10.0 mi SSW 10.4 mph - 0.00 in   Overcast
2:48 PM 23.0 °F 11.1 °F 12.2 °F 63% 30.13 in 2.5 mi SW 12.7 mph 18.4 mph 0.00 in Snow Light Snow
2:54 PM 23.0 °F 13.1 °F 14.0 °F 68% 30.16 in 2.0 mi WSW 9.2 mph - 0.00 in Snow Light Snow
3:13 PM 23.0 °F 13.9 °F 14.0 °F 68% 30.12 in 3.0 mi SW 8.1 mph - 0.00 in Snow Light Snow
3:54 PM 23.0 °F 15.8 °F 16.0 °F 74% 30.14 in 2.0 mi WSW 5.8 mph - 0.00 in Snow Light Snow
4:36 PM 23.0 °F - 17.6 °F 80% 30.10 in 1.2 mi Calm Calm - 0.00 in Snow Light Snow
4:54 PM 21.9 °F - 19.0 °F 89% 30.13 in 1.2 mi Calm Calm - 0.00 in Snow Light Snow
5:10 PM 21.2 °F - 19.4 °F 93% 30.09 in 2.5 mi Calm Calm - 0.00 in Snow Light Snow
5:32 PM 23.0 °F - 19.4 °F 86% 30.08 in 4.0 mi Calm Calm - 0.00 in Snow Light Snow
5:42 PM 23.0 °F - 19.4 °F 86% 30.08 in 1.5 mi Calm Calm - 0.00 in Snow Light Snow
5:54 PM 23.0 °F 15.8 °F 19.0 °F 85% 30.11 in 1.5 mi South 5.8 mph - 0.00 in Snow Light Snow
6:01 PM 23.0 °F 17.0 °F 19.4 °F 86% 30.07 in 3.0 mi South 4.6 mph - 0.00 in Snow Light Snow
6:15 PM 24.8 °F 17.9 °F 19.4 °F 80% 30.08 in 2.5 mi South 5.8 mph - 0.00 in Snow Light Snow
6:54 PM 23.0 °F 17.0 °F 19.9 °F 88% 30.11 in 2.0 mi South 4.6 mph - 0.00 in Snow Light Snow
7:54 PM 23.0 °F 17.0 °F 21.0 °F 92% 30.10 in 1.5 mi SSE 4.6 mph - 0.01 in Snow Light Snow
8:18 PM 24.8 °F 20.5 °F 21.2 °F 86% 30.07 in 2.0 mi SSE 3.5 mph - 0.00 in Snow Light Snow
8:36 PM 24.8 °F 19.1 °F 21.2 °F 86% 30.06 in 1.8 mi SSE 4.6 mph - 0.00 in Snow Light Snow
8:54 PM 24.1 °F - 21.0 °F 88% 30.09 in 1.5 mi Calm Calm - 0.01 in Snow Light Snow
9:05 PM 24.8 °F 20.5 °F 21.2 °F 86% 30.06 in 2.0 mi SSE 3.5 mph - 0.00 in Snow Light Snow
9:33 PM 24.8 °F 20.5 °F 21.2 °F 86% 30.05 in 1.8 mi SSE 3.5 mph - 0.00 in Snow Light Snow
9:41 PM 24.8 °F 20.5 °F 21.2 °F 86% 30.05 in 2.0 mi SSE 3.5 mph - 0.00 in Snow Light Snow
9:51 PM 24.8 °F 20.5 °F 21.2 °F 86% 30.05 in 1.5 mi SSE 3.5 mph - 0.01 in Snow Light Snow
9:54 PM 24.1 °F 19.7 °F 21.0 °F 88% 30.08 in 1.5 mi SSE 3.5 mph - 0.01 in Snow Light Snow
10:05 PM 24.8 °F 19.1 °F 21.2 °F 86% 30.04 in 3.0 mi SSE 4.6 mph - 0.00 in Snow Light Snow
10:28 PM 24.8 °F - 21.2 °F 86% 30.03 in 2.0 mi Calm Calm - 0.00 in Snow Light Snow
10:54 PM 24.1 °F - 21.9 °F 91% 30.06 in 2.5 mi Calm Calm - 0.00 in Snow Light Snow
11:15 PM 24.8 °F - 21.2 °F 86% 30.02 in 3.0 mi Calm Calm - 0.00 in Snow Light Snow
11:54 PM 24.1 °F - 21.9 °F 91% 30.05 in 4.0 mi Calm Calm - 0.00 in Snow Light Snow